Tracking 22439 objects as of 27-Feb-2021
HD Live streaming from Space Station
objects crossing your sky now

GALAXY 3R

Track GALAXY 3R now!
GALAXY 3R is classified as:


NORAD ID: 23741
Int'l Code: 1995-069A
Perigee: 35,747.0 km
Apogee: 35,808.7 km
Inclination: 11.5 °
Period: 1,435.3 minutes
Semi major axis: 42148 km
RCS: 12.3125 m2 (large)
Launch date: December 15, 1995
Source: United States (US)
Launch site: AIR FORCE EASTERN TEST RANGE (AFETR)

24 C-band, 16 Ku-band; North America, Caribbean; 140 television channels.
aabbcc
Your satellite tracking list
Your tracking list is empty




NASA's NSSDC Master Catalog

Two Line Element Set (TLE):
1 23741U 95069A   21058.51696944 -.00000096  00000-0  00000-0 0  9992
2 23741  11.4636  29.4020 0007317   7.0990 198.8230  1.00328607 92403
Source of the keplerian elements: AFSPC